STARLINK-1308, 45419

Orbit data source: Space-Track

STARLINK-1308, 45419 is a payload satellite owned by SpaceX/Seattle (US) in LEO that was launched on Wed, 18 Mar 2020 UTC via an FALCON 9 launch vehicle from the Air Force Eastern Test Range (AFETR). Payload-class satellites include a variety of spacecraft equipped with specific instruments for various scientific and technological missions. These include communications satellites like Starlink; space stations such as the ISS; scientific satellites like the Hubble; Earth observation satellites from companies like Planet Labs, Umbra, and HawkEye 360; GPS; miniature CubeSats for education and research; and military/defense satellites.

Loading next visibility...
Identifier
45419, 2020-019BM
Orbit
LEO
Country
Flag of USUS
Related business
Manufacturer
SpaceX/Seattle
Mission
Partially operational Commercial Communications
Bus & Motor
STARLINK, Unknown motor
Mass
260 kg wet, ~248 kg dry
Launch date (UTC)
2020-03-18 (6 years ago)
Launch vehicle
FALCON 9
Launch site
Air Force Eastern Test Range (AFETR)
Object type
Payload
Rocket body
Debris
Shape & HBR
Box + 1 Pan, 10.1 m
Radar Cross Section
13.562 m², Large (>1 m²)

Expand to show TLE details & history
Last TLE update: 7 hours ago

TLE from 7 hours ago
0 STARLINK-1308
1 45419U 20019BM  26169.86709928  .00039380  00000-0  36875-3 0  9993
2 45419  53.0464  19.5467 0006674  79.1276 281.0490 15.66838232345464
Epoch: 2026-06-18T20:48Z
TLE epoch observation values (Epoch: 2026-06-18T20:48:37.377Z)
Latitude
-0.00003°
Longitude
160.28667°
Altitude
367.999 km
Speed
7.69 km/s
True Right ascension
01h 18m 11s
True Declination
0° 00' 00"
Sunlit
Object was in daylight at epoch
Visualization orbit readout
Latitude
Unknown
Longitude
Unknown
Altitude
Unknown
Speed
Unknown
Apparent Right ascension
Unknown
Apparent Declination
Unknown
Sunlit
N/A
Visualization observer readout
Local Sidereal Time
15:07:40
Azimuth
Unknown
Elevation
Unknown
Doppler factor
Unknown
Orbital elements
Apogee altitude
372.739 km
Perigee altitude
363.734 km
Semi-major axis
6,746.373 km
Eccentricity
0.00067
Inclination
53.0464°
RAAN
19.5467°
Arg. of periapsis
79.1276°
True anomaly
280.97393°
Mean anomaly
281.049°
Eccentric anomaly
281.01146°
Mean motion
3.91686 °/min
Orbital period
91.91 mins
BSTAR
0.00036875
Loading maneuver chart data...
Computing Atmospheric mass density...

Documentation

Showing up to 5 results
|